www.pogodaiklimat.ru

Погода и климат >> Архив погоды >> Мадагаскар >> Самбава


ПОГОДА в Самбаве

  • Прогноз погоды в Самбаве
  • Монитор погоды в Самбаве

АРХИВ ПОГОДЫ в Самбаве

Время (UTC), дата Ветер
(напр.,м/с)
 
Видим.   Явления Облачность Т
(С)
Тd
(С)
f
(%)
Тe
(С)
Тes
(С)
Комфортность P
(гПа)
Po
(гПа)
Тmin
(С)
Tmax
(С)
R
(мм)
R24
(мм)
S
(см)
12 11.07 Ю 3 40 км 1/1 600 м
[Cu Sc Ci fib]
+27.0 +20.4 67 +33 +37 очень
душно
1014.6 1014.0
15 11.07 Ю 3 35 км 1/1 500 м
[Cu Sc]
+24.2 +21.2 83 +31 +31 очень
душно
1015.6 1015.0 +28.5
00 12.07 ЮЗ 1 35 км 1/1 500 м
[Cu Sc]
+20.2 +18.0 87 +25 +25 комфорт 1016.8 1016.4
03 12.07 ЮЗ 2 40 км 1/1 500 м
[Cu Sc]
+19.9 +18.4 91 +23 +23 комфорт 1017.0 1016.4
06 12.07 Ю 4 40 км 1/1 600 м
[Cu Sc]
+24.6 +19.4 73 +30 +34 очень
душно
1018.7 1018.1 +19.9 +28.5
09 12.07 Ю 4 40 км 3/3 600 м
[Cu med, cong]
+27.6 +18.6 58 +33 +39 очень
душно
1017.1 1016.5
12 12.07 40 км н/о +26.8 +20.2 67 +33 +36 очень
душно
1016.0 1015.4
15 12.07 Ю 5 35 км 1/1 500 м
[]
+24.1 +18.6 71 +29 +29 душно 1017.8 1017.2 +28.1
00 13.07 ЮЗ 1 35 км 1/1 500 м
[Cu Sc]
+20.2 +17.0 82 +24 +24 комфорт 1019.3 1018.7
03 13.07 З 2 40 км 1/1 500 м
[Cu med, cong]
+19.1 +16.2 83 +21 +21 комфорт 1019.8 1019.2
06 13.07 З 3 40 км 1/1 600 м
[Cu med, cong]
+24.0 +18.0 69 +28 +34 душно 1019.9 1019.3 +19.0 +28.1
09 13.07 Ю 5 40 км 1/1 600 м
[Cu med, cong]
+27.1 +19.0 61 +32 +39 очень
душно
1019.0 1018.5
12 13.07 Ю 6 25 км осадки на расстоянии 1/1 600 м
[Cu Sc]
+26.2 +19.3 66 +32 +33 очень
душно
1018.3 1017.7
15 13.07 Ю 4 20 км осадки на расстоянии 6/6 500 м
[Cu Sc]
+23.1 +19.3 79 +29 +29 очень
душно
1019.2 1018.6 +27.7
00 14.07 ЮЗ 2 30 км 3/3 500 м
[Cu med, cong]
+19.4 +17.3 88 +22 +22 комфорт 1019.5 1018.9
03 14.07 ЮЗ 2 25 км осадки на расстоянии 8/8 500 м
[Cu Sc]
+28.6 +17.0 49 +32 +32 душно 1019.8 1019.2
06 14.07 ЮЗ 3 25 км осадки на расстоянии 8/8 500 м
[Cu Sc]
+23.0 +16.0 65 +27 +29 душно 1021.2 1020.6 +19.0 +27.7
09 14.07 Ю 5 25 км осадки на расстоянии 3/3 600 м
[Cu med, cong]
+27.1 +22.2 75 +35 +41 очень
душно
1019.3 1018.7
12 14.07 Ю 6 40 км 1/1 600 м
[Cu Sc As op]
+26.2 +21.8 77 +34 +36 очень
душно
1018.7 1018.1
15 14.07 Ю 6 35 км 1/1 600 м
[Cu Sc]
+23.6 +19.1 76 +28 +28 душно 1019.8 1019.2 +27.4
00 15.07 Ю 1 30 км 1/1 500 м
[Cu Sc]
+18.6 +15.4 82 +21 +21 комфорт 1020.2 1019.5
03 15.07 ЮЗ 2 40 км 1/1 500 м
[Cu Sc]
+18.4 +15.6 84 +19 +19 1020.2 1019.6
06 15.07 З 3 25 км в посл. час дождь 4/4 500 м
[Cu Sc]
+20.6 +19.4 93 +25 +29 комфорт 1021.5 1020.9 +18.4 +27.4 5
09 15.07 Ю 5 25 км осадки на расстоянии 3/3 500 м
[Cu Sc]
+26.6 +19.2 64 +32 +37 очень
душно
1020.3 1019.7
12 15.07 Ю 5 25 км осадки на расстоянии 5/5 500 м
[Cu Sc]
+25.9 +17.4 59 +30 +31 душно 1018.8 1018.2
15 15.07 Ю 6 30 км 1/1 500 м
[Cu Sc]
+23.8 +17.6 68 +28 +28 душно 1020.6 1020.0 +27.3
00 16.07 ЮЗ 3 30 км 1/1 600 м
[Cu med, cong]
+18.6 +16.3 86 +20 +20 1020.6 1020.0
03 16.07 ЮЗ 5 40 км 1/1 600 м
[Cu med, cong]
+18.6 +16.0 85 +19 +19 1021.0 1020.4
06 16.07 ЮЗ 4 8000 м слаб. дождь 9/9 300 м
[Cu Sc]
+20.2 +18.0 87 +24 +24 комфорт 1023.0 1022.4 +18.2 +27.3 0.7
09 16.07 ЮЗ 6 25 км в посл. час дождь 8/5 500 м
[Cu Sc Ac trans]
+24.6 +21.0 80 +31 +33 очень
душно
1021.8 1021.2 0.2
12 16.07 Ю 6 25 км осадки на расстоянии 8/8 500 м
[Cu Sc]
+25.8 +20.4 72 +32 +32 очень
душно
1020.2 1019.6 0.2
15 16.07 Ю 6 20 км осадки на расстоянии 9/9 500 м
[Cu Sc]
+23.8 +18.8 74 +29 +29 душно 1021.3 1020.7 +26.5
00 17.07 ЮЗ 5 3000 м слаб. дождь 10/10 300 м
[Cu Sc]
+19.2 +18.6 96 +21 +21 комфорт 1022.1 1021.5 49
03 17.07 ЮЗ 6 15 км осадки на расстоянии 9/9 500 м
[Cu Sc]
+19.0 +18.4 96 +20 +20 1022.6 1022.0 53
06 17.07 Ю 6 20 км осадки на расстоянии 9/9 500 м
[Cu Sc]
+21.4 +18.6 84 +26 +26 душно 1023.9 1023.3 +18.4 +26.5 54
09 17.07 Ю 8 25 км осадки на расстоянии 9/9 500 м
[Cu Sc]
+22.0 +19.8 87 +28 +28 душно 1022.2 1021.6 1
12 17.07 Ю 8 25 км осадки на расстоянии 9/9 500 м
[Cu Sc]
+25.0 +16.5 59 +28 +29 жарко 1020.7 1020.1 1
15 17.07 Ю 7 20 км осадки на расстоянии 8/8 500 м
[Cu Sc]
+21.2 +18.4 84 +25 +25 комфорт 1021.8 1021.2 +26.8 0.9
00 18.07 ЮЗ 4 30 км 8/1 600 м
[Cu med, cong Ac trans]
+19.9 +15.4 75 +22 +22 комфорт 1020.4 1019.8
03 18.07 ЮЗ 4 25 км осадки на расстоянии 9/9 500 м
[Cu Sc]
+19.8 +16.8 83 +22 +22 комфорт 1020.9 1020.3 2
06 18.07 Ю 5 20 км в посл. час дождь 9/9 500 м
[Cu Sc]
+21.4 +19.7 90 +26 +27 душно 1022.2 1021.6 +18.5 +26.8 5

 

Местоположение метеостанции Самбава (Мадагаскар): широта -14.28 долгота 50.17 высота над уровнем моря 5 м.

В архиве по умолчанию представлена погода в Самбаве за последнюю неделю. Архивные данные за месяц целиком и за предыдущие месяцы, начиная с января 2011 года, Вы можете получить, выбрав интересующий диапазон дат из раскрывающегося списка и нажав кнопку "Ввод!".


*Определитесь, кто Вы:
робот инопланетянин человек

Внимание! Время в таблицах - всемирное. Для получения местного времени необходимо прибавить поправку, которая равна 3 ч.

Смотрите также архив погоды в соседних городах и на ближайших метеорологических станциях:

Погода в Анталахе (Мадагаскар) (67 км)
Погода в Аэропорту Fascene (Мадагаскар) (227 км)
Погода в Анциранане (Мадагаскар) (234 км)
Погода в Анцухихи (Мадагаскар) (245 км)
Погода на Нуси Бураха (Мадагаскар) (314 км)
Погода в Амбоайтзилаозане (Мадагаскар) (413 км)
Погода в Туамасине (Мадагаскар) (434 км)
Погода в Махадзанге (Мадагаскар) (438 км)
Погода на Острове Глорьёз (Реюньон) (446 км)
Погода в Серже-Фролоу (Реюньон) (495 км)

Пояснения к столбцам:

Ветер - указаны скорость ветра в м/с - средняя за 10 мин, порывы в срок и между сроками (в фигурных скобках) и направление, откуда дует ветер: С - северный, СВ - северо-восточный, В - восточный, ЮВ - юго-восточный, Ю - южный, ЮЗ - юго-западный, З - западный, СЗ - северо-западный.
Видимость - горизонтальная дальность видимости в метрах или километрах. При видимости от 1 до 10 км при отсутствии осадков обычно наблюдается дымка, при ухудшении видимости до 1 км и менее - туман. В сухую погоду видимость может ухудшаться дымом, пылью или мглою.
Явления - указаны атмосферные явления, наблюдавшиеся в срок или в последний час перед сроком; фигурными скобками обозначены явления, наблюдавшиеся между сроками (за 1-3 часа до срока); квадратными скобками обозначены град или гололедные отложения с указанием их диаметра в мм.
Облачность - указаны через наклонную черту общая и нижняя облачность в баллах и высота нижней границы облаков в метрах; квадратными скобками обозначены формы облаков: Ci - перистые, Cs - перисто-слоистые, Cc - перисто-кучевые, Ac - высококучевые, As - высокослоистые, Sc - слоисто-кучевые, Ns - слоисто-дождевые, Cu - кучевые, Cb - кучево-дождевые. Подробнее классификацию облаков см. в Атласе облаков (PDF).
T - Температура воздуха - температура, измеренная на высоте 2 м над землей.
Td - Температура точки росы - температура, при понижении до которой содержащийся в воздухе водяной пар достигнет насыщения.
f - Относительная влажность воздуха - влажноcть воздуха, измеренная на высоте 2 м над землей.
Te - Эффективная температура - температура, которую ощущает одетый по сезону человек в тени. Характеристика душности погоды. При расчете учитывается влияние влажности воздуха и скорости ветра на теплоощущения человека.
Tes - Эффективная температура на солнце - температура, которую ощущает человек, с поправкой на солнечный нагрев. Характеристика знойности погоды. Зависит от высоты солнца над горизонтом, облачности и скорости ветра. Ночью, в пасмурную погоду, а также при ветре 12 м/с и более поправка равна нулю.
P - Атмосферное давление - приведенное к уровню моря атмосферное давление.
Po - Атмосферное давление - измеренное на уровне метеостанции атмосферное давление.
Tmin - Минимальная температура - минимум температуры воздуха на высоте 2 м над землей.
Tmax - Максимальная температура - максимум температуры воздуха на высоте 2 м над землей.
R - Количество осадков - Количество выпавших осадков за период времени, мм. При наведении курсора мыши на число - период времени, за который выпало указанное количество осадков.
R24 - Количество осадков - Количество выпавших осадков за 24 часа, мм.
S - Снежный покров - Высота снежного покрова, см. При наведении курсора мыши на число - состояние снежного покрова и степень покрытия местности в баллах.